Location: Phoenix
(33.4480°N, 112.0730°W)
Time: 03:05:14
(UTC-07:00)

Cosmos 1470 Rocket - Visible Passes

Search period start: 20 August 2017 00:00
Search period end: 30 August 2017 00:00
Orbit: 603 x 635 km, 82.5° (Epoch: 19 August)

Date Brightness Start Highest point End Pass type
(mag) Time Alt. Az. Time Alt. Az. Time Alt. Az.
20 Aug 5.5 03:24:53 10° NNE 03:28:35 27° ENE 03:31:22 15° SE visible
20 Aug 5.0 05:03:15 10° NW 05:06:11 18° W 05:08:25 13° WSW visible
21 Aug 4.1 03:41:45 10° N 03:46:01 55° E 03:47:15 40° SE visible
22 Aug 3.4 03:59:02 10° NNW 04:03:19 70° W 04:03:19 70° W visible
23 Aug 6.3 02:40:08 10° NE 02:42:29 15° ENE 02:42:29 15° ENE visible
23 Aug 4.5 04:16:41 10° NNW 04:19:34 30° WNW 04:19:34 30° WNW visible
24 Aug 5.7 02:56:23 10° NNE 02:58:50 24° NE 02:58:50 24° NE visible
24 Aug 5.5 04:34:55 10° NW 04:35:56 14° WNW 04:35:56 14° WNW visible
25 Aug 5.4 03:13:17 10° N 03:15:17 26° N 03:15:17 26° N visible
26 Aug 5.6 03:30:35 10° NNW 03:31:50 19° NNW 03:31:50 19° NNW visible
27 Aug 6.1 03:48:16 10° NNW 03:48:26 11° NNW 03:48:26 11° NNW visible
28 Aug 6.7 02:27:51 10° NNE 02:28:00 11° NNE 02:28:00 11° NNE visible
